カタログに戻る

STARLINK-36070

運用中通信VLEO
NORAD 66864·PAYLOAD·🇺🇸 United States

打ち上げ Dec 2, 2025 から Cape Canaveral Space Force Station

Loading…

次のパス (今後24時間)

TLE

最新Source: CelesTrak SupGP

元期: Sep 14, 2026, 23:14 UTC

1 66864C 25281S   26257.96854167 -.00021630  00000+0 -78319-3 0  2577
2 66864  43.0038 354.7797 0001778 271.8247 329.7101 15.27598837    15

AllMySatでSTARLINK-36070をリアルタイム追跡

Download on the App Store